Flag for India Weather past 2 weeks in Ahmedabad, Gujarat, India

Now
68 °F

Clear.


Feels Like: 68 °F
Forecast: 57 / 84 °F
Wind: 2 mph from Northeast

Location: Ahmadabad Airport

Current Time: Mar 4, 2015 at 12:26:22 AM

Latest Report: Mar 3, 2015 at 10:40 PM


Visibility: 2 mi

Pressure: 29.95 "Hg

Humidity: 53%

Dew point: 50 °F

Location of AhmedabadLocation

Historic Weather in Ahmedabad — Graph

°F

Ahmedabad temperature yesterday

Maximum temperature yesterday: 82 °F (at 3:40 PM)
Minimum temperature yesterday: 57 °F (at 5:40 AM)
Average temperature yesterday: 71 °F

Past Weeks' High & Low Weather Summary

 TemperatureHumidityPressure
High100 °F (Feb 23, 1:40 PM)88% (Mar 1, 8:40 AM)30.04 "Hg (Mar 1, 8:40 AM)
Low54 °F (Feb 27, 5:40 AM)16% (Feb 26, 2:40 PM)29.68 "Hg (Feb 28, 3:40 PM)
Average76 °F49%29.86 "Hg
* Reported Feb 16 10:40 PM — Mar 3 10:40 PM, Ahmedabad, Weather by CustomWeather, © 2015

Note: Actual official high and low records may vary slightly from our data, if they occured in-between our weather recording intervals... More about our weather records

Advertising

Ahmedabad weather history for previous 24 hours

 ConditionsComfort  
Time TempWeatherWind HumidityBarometerVisibility
10:40 PM
Tue, Mar 3
68 °FClear.2 mph53%29.95 "Hg2 mi
8:40 PM72 °FClear.No wind47%29.92 "Hg2 mi
7:40 PM73 °FClear.3 mph44%29.92 "Hg2 mi
6:40 PM75 °FScattered clouds.2 mph41%29.89 "Hg2 mi
5:40 PM81 °FScattered clouds.2 mph32%29.89 "Hg4 mi
4:40 PM82 °FScattered clouds.6 mph28%29.86 "Hg4 mi
3:40 PM82 °FScattered clouds.5 mph30%29.89 "Hg4 mi
2:40 PM81 °FScattered clouds.5 mph32%29.89 "Hg4 mi
1:40 PM81 °FScattered clouds.5 mph32%29.95 "Hg4 mi
12:40 PM79 °FPartly sunny.6 mph34%29.98 "Hg4 mi
11:40 AM77 °FPassing clouds.3 mph39%30.01 "Hg4 mi
10:40 AM75 °FScattered clouds.6 mph47%30.04 "Hg2 mi
8:40 AM63 °FHaze.3 mph73%30.01 "Hg1 mi
5:40 AM57 °FFog.2 mph82%29.95 "Hg2 mi
4:40 AM61 °FPassing clouds.2 mph77%29.95 "Hg2 mi
3:40 AM63 °FPassing clouds.6 mph77%29.95 "Hg2 mi
2:40 AM61 °FPassing clouds.No wind83%29.95 "Hg2 mi
1:40 AM63 °FPassing clouds.No wind77%29.95 "Hg2 mi
12:40 AM64 °FPassing clouds.No wind78%29.98 "Hg2 mi
Weather by CustomWeather, © 2015

See weather overviewHow to use our weather pages